EW3349 Weather Reports


Display with metric or nautical units.
time (UTC)temp
F
wind
direction
speed
MPH
gust
MPH
rain 1hr
in
rain 24hr
in
rain mn
in
humidity
%
barometer
mb
20260505234851 48 353 0.0 0.0 0.04 0.09 0.09 91 1007.3
20260505233820 48 342 0.0 0.0 0.04 0.08 0.09 91 1007.1
20260505231718 48 333 0.0 1.0 0.10 0.06 0.06 89 1007.4
20260505230740 49 347 0.0 1.0 0.15 0.04 0.05 88 1007.2
20260505225718 50 326 0.0 4.0 0.13 0.02 0.03 85 1006.8
20260505224652 52 4 0.0 4.0 0.00 0.00 0.00 80 1006.9
20260505222534 56 4 3.0 9.0 0.00 0.00 0.00 74 1006.4
20260505221502 58 335 3.0 10.0 0.00 0.00 0.00 70 1006.1
20260505220507 61 335 4.0 10.0 0.00 0.00 0.00 70 1005.4
20260505214409 63 6 4.0 12.0 0.00 0.00 0.00 68 1004.9
20260505212240 66 338 3.0 10.0 0.00 0.00 0.00 61 1004.1
20260505211209 67 345 4.0 16.0 0.00 0.00 0.00 61 1004.0
20260505210234 67 27 5.0 16.0 0.00 0.00 0.00 59 1003.7
20260505205214 67 26 4.0 11.0 0.00 0.00 0.00 62 1003.8
20260505204206 67 335 3.0 8.0 0.00 0.00 0.00 62 1003.9
20260505203208 67 74 3.0 8.0 0.00 0.00 0.00 64 1003.6
20260505202136 66 334 3.0 11.0 0.00 0.00 0.00 65 1003.5
20260505201148 66 40 3.0 11.0 0.00 0.00 0.00 63 1003.5
20260505200115 67 23 3.0 8.0 0.00 0.00 0.00 64 1003.6
20260505195111 66 347 1.0 8.0 0.00 0.00 0.00 65 1003.7
20260505194046 66 352 3.0 8.0 0.00 0.00 0.00 64 1003.7
20260505193054 66 151 3.0 9.0 0.00 0.00 0.00 63 1003.6
20260505190936 68 354 3.0 8.0 0.00 0.00 0.00 60 1003.5
20260505185922 70 8 4.0 7.0 0.00 0.00 0.00 58 1003.3
20260505184911 71 3 3.0 13.0 0.00 0.00 0.00 56 1002.9
20260505183924 71 139 5.0 13.0 0.00 0.00 0.00 53 1002.8
20260505182934 72 186 5.0 11.0 0.00 0.00 0.00 53 1002.9
20260505181935 72 348 3.0 11.0 0.00 0.00 0.00 55 1002.8
20260505180937 70 20 4.0 9.0 0.00 0.00 0.00 58 1003.0
20260505175937 70 132 4.0 12.0 0.00 0.00 0.00 56 1003.2
20260505174931 71 301 4.0 12.0 0.00 0.00 0.00 55 1003.1
20260505173914 71 15 4.0 10.0 0.00 0.00 0.00 57 1002.9
20260505172924 70 338 3.0 10.0 0.00 0.00 0.00 57 1002.6
20260505171946 69 2 3.0 10.0 0.00 0.00 0.00 61 1002.5
20260505170943 67 4 4.0 14.0 0.00 0.00 0.00 62 1002.7
20260505164851 67 149 3.0 13.0 0.00 0.00 0.00 59 1003.0
20260505163842 69 4 3.0 10.0 0.00 0.00 0.00 59 1002.7
20260505162822 70 357 4.0 15.0 0.00 0.00 0.00 55 1002.7
20260505161831 72 12 4.0 15.0 0.00 0.00 0.00 51 1002.3
20260505151523 71 154 4.0 11.0 0.00 0.00 0.00 55 1001.5
20260505150516 70 214 3.0 11.0 0.00 0.00 0.00 57 1001.7
20260505140406 69 357 4.0 11.0 0.00 0.00 0.00 57 1001.6
20260505130148 69 148 4.0 14.0 0.00 0.00 0.00 57 1001.3
20260505123029 68 132 4.0 16.0 0.00 0.00 0.00 60 1001.1
20260505122025 67 174 4.0 10.0 0.00 0.00 0.00 60 1001.0
20260505121050 67 164 3.0 9.0 0.00 0.00 0.00 61 1001.0
20260505120042 66 153 3.0 8.0 0.00 0.00 0.00 62 1001.2
20260505115026 66 146 3.0 9.0 0.00 0.00 0.00 63 1001.1
20260505114037 66 164 3.0 13.0 0.00 0.00 0.00 63 1001.1
20260505113021 66 353 4.0 13.0 0.00 0.00 0.00 63 1001.0
20260505112015 65 349 3.0 11.0 0.00 0.00 0.00 64 1000.9
20260505111017 64 193 3.0 10.0 0.00 0.00 0.00 65 1000.6
20260505100722 63 53 1.0 6.0 0.00 0.00 0.00 68 1000.4
20260505095658 63 133 1.0 5.0 0.00 0.00 0.00 68 1000.3
20260505094706 63 226 1.0 6.0 0.00 0.00 0.00 68 1000.2
20260505092541 62 176 3.0 7.0 0.00 0.00 0.00 68 1000.4
20260505091516 62 172 1.0 7.0 0.00 0.00 0.00 70 1000.4
20260505090508 61 219 1.0 5.0 0.00 0.00 0.00 72 1000.6
20260505085455 60 167 0.0 4.0 0.00 0.00 0.00 74 1000.8
20260505083234 60 195 0.0 2.0 0.00 0.00 0.00 75 1000.8
20260505082227 60 154 0.0 2.0 0.00 0.00 0.00 75 1000.9
20260505081225 61 188 0.0 2.0 0.00 0.00 0.00 74 1001.0
20260505080246 61 352 0.0 0.0 0.00 0.00 0.00 73 1001.0
20260505075237 61 160 0.0 0.0 0.00 0.00 0.00 72 1001.1
20260505074235 61 148 0.0 3.0 0.00 0.00 0.00 72 1001.0
20260505073209 62 200 0.0 5.0 0.00 0.00 0.00 71 1000.9
20260505072213 62 164 0.0 4.0 0.00 0.00 0.00 72 1001.0
20260505070013 62 165 0.0 9.0 0.00 0.00 0.00 72 1001.7
20260505065000 63 154 3.0 9.0 0.00 0.00 0.00 70 1001.8
20260505063942 63 128 3.0 9.0 0.00 0.00 0.00 66 1001.7
20260505062908 63 184 3.0 8.0 0.00 0.00 0.00 66 1001.5
20260505061909 63 350 1.0 6.0 0.00 0.00 0.00 66 1001.4
20260505060932 63 344 1.0 8.0 0.00 0.00 0.00 66 1001.4
20260505055858 63 162 3.0 10.0 0.00 0.00 0.00 65 1001.4
20260505054904 63 165 1.0 11.0 0.00 0.00 0.00 64 1001.4
20260505053854 64 6 1.0 11.0 0.00 0.00 0.00 64 1001.4
20260505052901 63 172 1.0 8.0 0.00 0.00 0.00 64 1001.5
20260505051903 63 182 1.0 7.0 0.00 0.00 0.00 63 1001.5
20260505050927 64 150 1.0 6.0 0.00 0.00 0.00 63 1001.5
20260505035738 64 207 0.0 6.0 0.00 0.00 0.00 57 1001.9
20260505034755 64 153 1.0 9.0 0.00 0.00 0.00 56 1002.1
20260505032636 65 174 5.0 15.0 0.00 0.00 0.00 52 1001.9
20260505031605 65 342 3.0 10.0 0.00 0.00 0.00 46 1002.1
20260505030608 64 153 0.0 3.0 0.00 0.00 0.00 45 1001.8
20260505025552 64 164 0.0 2.0 0.00 0.00 0.00 46 1001.8
20260505024528 63 93 0.0 0.0 0.00 0.00 0.00 46 1001.8
20260505023551 62 159 0.0 0.0 0.00 0.00 0.00 46 1001.7
20260505022613 61 157 0.0 0.0 0.00 0.00 0.00 47 1001.7
20260505021555 61 349 0.0 0.0 0.00 0.00 0.00 49 1001.9
20260505020556 61 349 0.0 0.0 0.00 0.00 0.00 49 1002.0
20260505015546 61 341 0.0 0.0 0.00 0.00 0.00 48 1002.2
20260505014521 61 346 0.0 0.0 0.00 0.00 0.00 49 1002.2
20260505013532 62 346 0.0 0.0 0.00 0.00 0.00 48 1002.1
20260505011351 63 346 0.0 0.0 0.00 0.00 0.00 46 1001.9
20260505010357 63 346 0.0 0.0 0.00 0.00 0.00 45 1001.8
20260505005356 64 346 0.0 0.0 0.00 0.00 0.00 44 1001.8
20260505004353 65 346 0.0 0.0 0.00 0.00 0.00 42 1001.8
20260505003336 66 346 0.0 0.0 0.00 0.00 0.00 41 1001.8
20260505002322 67 346 0.0 0.0 0.00 0.00 0.00 39 1001.8
20260505001344 69 346 0.0 0.0 0.00 0.00 0.00 37 1001.8
20260505000343 69 346 0.0 0.0 0.00 0.00 0.00 36 1001.7